User: anonymous   Login
Location: Los Gatos B&B
(42.6926°N, 77.0646°W)
Time: 16:27:21
(UTC-04:00)
Language:

SL-16 R/B - Orbit

View from above orbital plane
View from above orbital plane
View from above satellite
View from above satellite

Ground track
Ground track

The orbit data is extracted from the following two-line orbital elements,

1 28353U 04021B   16179.91725211 -.00000270 +00000-0 -11666-3 0  9994
2 28353 071.0010 101.4169 0004891 350.6573 009.4457 14.14176457622060
Epoch (UTC): 27 June 2016 22:00:50
Eccentricity: 0.0004891
inclination: 71.0010°
perigee height: 841 km
apogee height: 848 km
right ascension of ascending node: 101.4169°
argument of perigee: 350.6573°
revolutions per day: 14.14176457
mean anomaly at epoch: 9.4457°
orbit number at epoch: 62206

The dashed part of the orbit path shows where the satellite is in the earth's shadow,  

DLR